SCP
0 0 0 0 0 0 0 0 0 0 0 0 0 0 0 0 0 0 0 0 0 0 0 0 0 0 0 0 0 0 0 0 0 0 0 0 0 0 0 0 0 0 0
0 0 0 0 0 0 0 0 0 0 0 0 0 0 0 0 0 0 0 0 0 0 0 0 0 0 0 0 0 0 0 0 0 0 0 0 0 0 0 0 0 0 0
0 0 0 0 0 0 0 0 0 0 0 0 0 0 0 0 0 0 0 0 0 0 0 0 0 0 0 0 0 0 0 0 0 0 0 0 0 0 0 0 0 0 0
0 0 0 0 0 0 0 0 0 0 0 0 0 0 0 0 0 0 0 0 0 0 0 0 0 0 0 0 0 0 0 0 0 0 0 0 0 0 0 0 0 0 0
0 0 0 0 0 0 0 0 0 0 0 0 0 0 0 0 0 0 0 0 0 0 0 0 0 0 0 0 0 0 0 0 0 0 0 0 0 0 0 0 0 0 0
0 0 0 0 0 0 0 0 0 0 0 0 0 0 0 0 0 0 0 0 0 0 0 0 0 0 0 0 0 0 0 0 0 0 0 0 0 0 0 0 0 0 0
0 0 0 0 0 0 0 0 0 0 0 0 0 0 0 0 0 0 0 0 0 0 0 0 0 0 0 0 0 0 0 0 0 0 0 0 0 0 0 0 0 0 0
0 0 0 0 0 -0 -0 0 0 0 0 0 0 0 0 0 0 0 0 0 0 0 0 0 0 0 0 0 0 0 0 0 0 0 0 0 0 0 0 0 0 0 0
0 0 0 0 0 -0 -0 0 0 0 0 0 0 0 0 0 0 0 0 0 0 0 0 0 0 0 0 0 0 0 0 0 0 0 0 0 0 0 0 0 0 0 0
0 0 0 0 0 -0 -0 0 0 0 0 0 0 0 0 0 0 0 0 0 0 0 0 0 0 0 0 0 0 0 0 0 0 0 0 0 0 0 0 0 0 0 0
0 0 0 -0 -0 -0 0 0 0 0 0 0 0 0 0 0 0 0 0 0 0 0 0 0 0 0 0 0 0 0 0 0 0 0 0 0 0 0 0 0 0 0 0
0 0 0 0 0 0 0 0 0 0 0 0 0 0 0 0 0 0 0 0 0 0 0 0 0 0 0 0 0 0 0 0 0 0 0 0 0 0 0 0 0 0 0
0 0 0 0 0 0 0 0 0 0 0 0 0 0 0 0 0 0 0 0 0 0 0 0 0 0 0 0 0 0 0 0 0 0 0 0 0 0 0 0 0 0 0
0 0 0 0 0 0 0 0 0 0 0 0 0 0 0 0 0 0 0 0 0 0 0 0 0 0 0 0 0 0 0 0 0 0 0 0 0 0 0 0 0 0 0
0 0 0 0 0 0 0 0 0 0 0 0 0 0 0 0 0 0 0 0 0 0 0 0 0 0 0 0 0 0 0 0 0 0 0 0 0 0 0 0 0 0 0
-0 0 0 0 0 0 0 0 0 0 0 0 0 0 0 0 0 -0 -0 -0 -0 0 0 0 0 0 0 0 0 0 0 0 0 0 0 0 0 0 0 0 0 0 0
0 -0 -0 -0 -0 -0 -0 -0 -0 0 -0 -0 0 0 0 0 -0 -0 -0 -0 -0 0 0 0 0 0 0 0 0 0 0 0 0 0 0 0 0 0 0 0 0 0 0
0 0 0 0 0 0 -0 -0 -0 -0 -0 0 -0 -0 -0 -0 -0 -0 -0 -0 0 0 0 0 0 0 0 0 0 0 0 0 0 0 0 0 0 0 0 0 0 0 0
0 0 0 0 0 0 0 0 0 0 0 0 0 -0 -0 -0 -0 -0 -0 0 0 0 0 0 0 0 0 0 0 0 0 0 0 0 0 0 0 0 0 0 0 0 0
0 0 0 0 0 0 0 0 0 0 0 0 0 0 0 0 0 0 0 0 0 0 0 0 0 0 0 0 0 0 0 0 0 0 0 0 0 0 0 0 0 0 0
0 0 0 0 0 0 0 0 0 0 0 0 0 0 0 0 0 0 0 0 0 0 0 0 0 0 0 0 0 0 0 0 0 0 0 0 0 0 0 0 0 0 0
0 0 0 0 0 0 0 0 0 0 0 0 0 0 0 0 0 0 0 0 0 0 0 0 0 0 0 0 0 0 0 0 0 0 0 0 0 0 0 0 0 0 0
0 0 0 0 0 0 0 0 0 0 0 0 0 0 0 0 0 0 0 0 0 0 0 0 0 0 0 0 0 0 0 0 0 0 0 0 0 0 0 0 0 0 0
0 0 0 0 0 0 0 0 0 0 0 0 0 0 0 0 0 0 0 0 0 0 0 0 0 0 0 0 0 0 0 0 0 0 0 0 0 0 0 0 0 0 0
0 0 0 0 0 0 0 0 0 0 0 0 0 0 0 0 0 0 0 0 0 0 0 0 0 0 0 0 0 0 0 0 0 0 0 0 0 0 0 0 0 0 0
0 0 0 0 0 0 0 0 0 0 0 0 0 0 0 0 0 0 0 0 0 0 0 0 0 0 0 0 0 0 0 0 0 0 0 0 0 0 0 0 0 0 0
Wind_Speed_500mb
77 78 80 81 84 84 88 92 86 83 79 73 74 73 78 83 83 83 94 95 103 133 134 131 127 118 112 100 86 74 65 54 49 47 44 47 53 58 47 44 51 49 43
78 80 77 75 78 78 83 86 83 84 70 71 66 74 76 83 80 86 92 105 95 117 125 122 112 101 92 95 92 85 75 66 52 46 48 56 43 41 45 53 54 48 45
70 73 72 71 72 76 76 75 75 71 74 75 78 80 74 83 80 81 85 103 85 94 123 127 116 105 100 92 88 79 64 61 49 44 50 49 47 53 55 59 57 50 47
66 66 68 67 67 69 70 70 70 67 71 70 64 73 88 77 82 76 95 92 92 92 98 112 120 101 105 88 87 73 68 60 53 50 50 45 50 52 59 58 53 48 42
66 63 61 58 57 55 57 57 63 66 65 71 61 74 78 90 82 73 78 83 93 90 97 105 109 103 90 86 81 78 66 59 56 53 50 47 50 56 61 53 47 41 41
62 57 52 51 48 45 45 46 48 55 61 57 61 67 83 87 92 83 77 95 93 76 71 90 95 93 82 77 73 66 58 62 56 50 48 50 52 55 48 42 40 40 43
55 48 45 42 41 30 20 36 40 51 53 51 62 66 82 81 75 69 82 85 77 74 68 74 85 80 77 69 60 57 57 47 45 39 45 50 43 36 35 39 42 39 38
47 40 37 32 19 7 13 31 42 49 55 60 60 69 69 61 61 54 60 68 77 74 69 76 83 80 73 70 61 59 46 45 46 42 41 36 35 37 37 38 38 38 39
44 36 29 21 12 7 21 32 42 49 57 59 55 61 65 64 54 57 65 67 59 49 64 75 80 77 72 60 50 51 52 51 47 42 39 38 38 37 38 38 38 38 44
43 32 24 18 10 11 23 33 41 42 55 61 56 57 57 60 53 58 50 21 43 61 63 65 62 57 50 47 47 51 50 43 39 38 36 35 36 38 39 39 38 41 45
33 25 18 15 10 10 20 27 33 42 51 51 52 47 48 46 36 35 41 37 52 72 75 69 52 45 45 46 47 41 34 31 31 32 35 37 39 39 39 41 41 44 49
31 27 25 21 22 21 21 31 39 48 56 59 59 56 47 41 41 44 40 55 71 67 62 56 52 50 51 42 36 32 30 31 32 32 34 36 37 39 41 42 46 52 58
37 37 34 34 35 36 40 46 52 56 62 66 65 66 62 58 57 57 56 51 46 51 52 51 50 41 35 32 28 25 26 28 29 31 32 36 40 43 43 47 52 58 60
41 39 40 42 44 43 44 52 57 60 64 66 69 68 63 62 63 62 61 58 55 53 47 43 39 35 29 25 25 26 26 27 29 32 36 40 45 50 56 62 63 58 58
50 48 45 45 48 49 50 51 58 62 66 71 70 69 72 73 66 60 55 52 47 42 40 36 31 27 24 20 18 19 23 27 31 34 38 44 50 55 54 49 47 48 52
64 62 60 58 58 62 65 67 61 62 62 63 62 60 60 58 54 48 45 42 37 32 29 25 22 18 17 17 20 23 25 26 29 34 38 42 42 41 40 40 43 46 53
47 49 52 56 59 62 64 68 72 60 56 53 49 46 45 48 42 39 37 34 30 24 21 20 18 16 16 18 19 21 23 27 30 32 33 32 34 37 39 43 46 52 58
26 30 33 38 40 42 45 48 50 51 51 49 44 40 37 35 33 29 25 23 21 20 18 15 13 12 13 15 19 21 22 23 23 26 31 36 39 42 46 49 51 53 57
18 21 25 29 32 34 35 37 37 37 38 40 37 33 32 27 24 21 18 16 13 10 7 5 7 10 13 16 18 20 22 23 24 28 32 37 42 45 45 47 49 52 56
12 15 16 17 20 22 23 22 24 23 24 23 22 20 18 15 13 11 8 5 4 5 7 9 9 10 12 13 14 16 19 24 27 32 36 39 41 43 45 47 49 51 51
16 15 15 15 16 16 16 17 17 16 16 17 16 15 12 9 8 8 7 6 4 2 2 5 6 7 9 11 15 20 24 27 31 33 35 37 38 39 41 43 45 45 47
19 18 17 15 14 13 13 13 13 13 13 12 12 14 13 11 9 8 6 5 3 2 1 2 4 8 13 17 20 23 26 29 31 32 33 36 37 39 39 39 40 41 42
23 20 18 17 16 15 15 14 13 13 13 14 13 11 12 10 9 9 8 6 5 5 4 7 11 14 16 19 23 26 28 30 31 33 34 33 33 34 35 36 37 37 38
24 22 20 19 17 16 15 14 15 14 13 12 11 12 13 12 11 10 10 8 7 10 12 15 19 22 24 26 28 30 30 30 29 30 30 31 31 32 32 34 36 41 44
24 22 20 18 17 17 17 17 17 17 16 17 17 16 15 14 13 10 9 9 11 14 16 17 19 22 24 25 25 26 27 29 29 27 28 31 33 35 39 43 44 44 47
28 26 23 22 22 21 20 20 20 20 19 19 18 17 14 11 10 9 10 10 10 11 14 18 19 20 22 23 25 26 29 29 28 24 31 31 34 41 48 49 47 48 49
Wind_Direction_500mb
292 290 283 278 273 269 262 257 254 255 249 247 242 230 231 227 223 224 228 225 216 217 215 225 224 219 214 215 220 220 211 221 223 217 215 207 207 219 224 228 229 233 244
301 291 281 277 272 267 262 259 253 247 243 239 237 223 224 223 217 221 223 219 221 217 225 214 216 221 217 217 216 217 221 229 213 204 207 212 214 212 235 234 228 235 245
303 299 292 286 279 272 265 256 249 244 238 235 230 220 216 219 216 218 226 221 215 233 226 216 211 214 217 210 217 224 217 228 217 214 203 206 214 228 225 221 227 236 246
314 307 301 292 287 281 270 258 248 236 232 233 230 220 217 215 214 212 221 227 225 223 234 222 214 214 219 213 219 216 213 206 205 195 207 229 226 217 217 224 231 241 252
322 316 310 302 298 294 280 258 242 234 225 228 226 212 213 215 215 214 222 227 223 225 224 225 211 212 215 214 216 207 201 202 198 208 233 224 208 217 222 228 237 244 254
327 324 320 318 307 295 267 249 233 225 217 217 214 218 204 205 213 214 218 218 216 216 226 218 212 214 207 210 207 205 207 198 213 223 216 196 209 221 227 234 240 244 255
336 333 331 325 318 322 227 227 210 203 206 203 207 198 201 199 205 209 209 213 221 223 222 216 212 200 194 186 182 186 197 215 220 215 188 209 221 230 235 237 245 251 259
349 347 347 339 330 326 170 175 182 183 190 187 199 195 195 196 202 201 208 216 213 213 225 223 198 183 182 181 186 191 198 186 168 195 210 221 227 231 237 242 245 253 263
359 360 0 356 26 125 150 163 177 177 184 186 193 198 199 193 198 201 213 211 199 205 200 189 182 178 177 182 191 188 183 174 188 202 212 222 232 238 243 248 254 261 266
5 7 10 8 32 119 149 151 159 176 176 180 181 186 186 185 191 205 200 188 193 182 174 173 175 170 173 181 183 175 175 188 198 209 221 233 243 248 252 256 259 265 273
19 26 40 48 72 124 132 137 152 164 163 157 156 159 167 174 173 187 181 176 178 162 160 160 164 170 169 171 171 176 182 194 206 219 231 241 248 253 260 266 272 276 277
40 57 70 85 101 120 142 133 136 145 140 136 135 133 137 141 161 171 152 157 158 155 158 157 157 161 162 168 174 181 193 205 218 231 242 251 258 262 267 269 275 279 280
57 66 76 89 103 116 121 124 130 133 131 133 132 131 138 147 136 128 133 143 146 149 150 150 149 155 165 172 178 192 211 222 232 243 252 256 259 264 270 274 278 280 279
67 74 82 92 100 107 114 120 124 127 127 127 128 132 132 127 123 126 128 130 133 134 137 147 155 161 168 181 194 210 225 239 250 256 260 266 273 279 281 283 284 286 287
64 72 79 89 99 106 108 109 112 118 125 129 127 123 120 116 117 122 126 133 136 142 150 151 157 166 178 193 211 231 245 254 262 270 276 281 284 283 283 288 295 301 299
75 77 81 84 90 97 102 106 105 106 105 103 106 112 117 116 120 126 130 131 134 138 146 148 156 165 187 210 228 243 254 264 273 278 278 278 280 290 298 299 299 300 301
84 86 92 97 101 106 111 113 116 116 114 112 113 115 117 120 123 122 125 130 132 137 146 159 173 187 206 225 242 253 257 260 265 270 282 291 295 296 295 297 298 300 302
90 94 97 98 100 104 107 107 109 112 113 112 114 115 115 117 119 122 126 132 141 153 168 178 191 209 227 241 254 264 276 287 294 295 296 296 295 299 303 303 302 302 303
110 110 109 109 109 109 110 112 113 115 116 117 120 125 127 129 133 140 150 161 170 178 201 228 254 260 265 276 292 302 308 310 308 306 307 308 308 306 305 305 305 304 303
145 139 130 124 121 121 120 121 123 125 126 129 132 136 144 152 159 168 181 200 215 224 239 251 267 288 306 313 317 316 314 315 316 314 311 310 311 311 311 310 309 310 312
192 184 172 167 161 154 151 150 149 153 157 155 154 154 156 159 167 167 167 175 179 201 308 326 333 333 329 326 327 328 326 322 318 317 316 317 316 315 316 316 316 314 314
209 203 201 198 195 190 182 179 177 176 168 161 159 163 159 162 163 152 135 116 92 72 22 357 353 350 346 342 334 327 325 325 326 325 325 324 322 319 319 321 323 325 325
211 214 211 205 200 197 194 185 178 170 166 157 146 140 133 138 129 122 121 127 131 116 65 25 9 358 349 342 338 335 334 331 327 324 321 319 324 329 332 336 337 338 338
208 209 208 207 202 194 187 180 170 160 155 145 139 137 134 136 134 135 127 109 69 39 24 13 3 354 346 342 337 332 328 325 322 323 326 331 336 338 337 334 331 328 324
206 206 203 202 198 192 185 180 173 163 156 148 145 145 144 136 125 107 83 61 40 26 13 358 345 338 333 328 325 325 327 328 328 330 328 331 331 328 327 329 331 327 326
203 198 194 194 190 183 175 171 162 157 155 155 152 145 137 126 106 80 58 41 23 357 341 332 328 326 327 329 331 331 333 333 332 324 331 324 323 329 327 322 323 323 323
Wind_Speed_850mb
77 78 80 81 84 84 88 92 86 83 79 73 74 73 78 83 83 83 94 95 103 133 134 131 127 118 112 100 86 74 65 54 49 47 44 47 53 58 47 44 51 49 43
78 80 77 75 78 78 83 86 83 84 70 71 66 74 76 83 80 86 92 105 95 117 125 122 112 101 92 95 92 85 75 66 52 46 48 56 43 41 45 53 54 48 45
70 73 72 71 72 76 76 75 75 71 74 75 78 80 74 83 80 81 85 103 85 94 123 127 116 105 100 92 88 79 64 61 49 44 50 49 47 53 55 59 57 50 47
66 66 68 67 67 69 70 70 70 67 71 70 64 73 88 77 82 76 95 92 92 92 98 112 120 101 105 88 87 73 68 60 53 50 50 45 50 52 59 58 53 48 42
66 63 61 58 57 55 57 57 63 66 65 71 61 74 78 90 82 73 78 83 93 90 97 105 109 103 90 86 81 78 66 59 56 53 50 47 50 56 61 53 47 41 41
62 57 52 51 48 45 45 46 48 55 61 57 61 67 83 87 92 83 77 95 93 76 71 90 95 93 82 77 73 66 58 62 56 50 48 50 52 55 48 42 40 40 43
55 48 45 42 41 30 20 36 40 51 53 51 62 66 82 81 75 69 82 85 77 74 68 74 85 80 77 69 60 57 57 47 45 39 45 50 43 36 35 39 42 39 38
47 40 37 32 19 7 13 31 42 49 55 60 60 69 69 61 61 54 60 68 77 74 69 76 83 80 73 70 61 59 46 45 46 42 41 36 35 37 37 38 38 38 39
44 36 29 21 12 7 21 32 42 49 57 59 55 61 65 64 54 57 65 67 59 49 64 75 80 77 72 60 50 51 52 51 47 42 39 38 38 37 38 38 38 38 44
43 32 24 18 10 11 23 33 41 42 55 61 56 57 57 60 53 58 50 21 43 61 63 65 62 57 50 47 47 51 50 43 39 38 36 35 36 38 39 39 38 41 45
33 25 18 15 10 10 20 27 33 42 51 51 52 47 48 46 36 35 41 37 52 72 75 69 52 45 45 46 47 41 34 31 31 32 35 37 39 39 39 41 41 44 49
31 27 25 21 22 21 21 31 39 48 56 59 59 56 47 41 41 44 40 55 71 67 62 56 52 50 51 42 36 32 30 31 32 32 34 36 37 39 41 42 46 52 58
37 37 34 34 35 36 40 46 52 56 62 66 65 66 62 58 57 57 56 51 46 51 52 51 50 41 35 32 28 25 26 28 29 31 32 36 40 43 43 47 52 58 60
41 39 40 42 44 43 44 52 57 60 64 66 69 68 63 62 63 62 61 58 55 53 47 43 39 35 29 25 25 26 26 27 29 32 36 40 45 50 56 62 63 58 58
50 48 45 45 48 49 50 51 58 62 66 71 70 69 72 73 66 60 55 52 47 42 40 36 31 27 24 20 18 19 23 27 31 34 38 44 50 55 54 49 47 48 52
64 62 60 58 58 62 65 67 61 62 62 63 62 60 60 58 54 48 45 42 37 32 29 25 22 18 17 17 20 23 25 26 29 34 38 42 42 41 40 40 43 46 53
47 49 52 56 59 62 64 68 72 60 56 53 49 46 45 48 42 39 37 34 30 24 21 20 18 16 16 18 19 21 23 27 30 32 33 32 34 37 39 43 46 52 58
26 30 33 38 40 42 45 48 50 51 51 49 44 40 37 35 33 29 25 23 21 20 18 15 13 12 13 15 19 21 22 23 23 26 31 36 39 42 46 49 51 53 57
18 21 25 29 32 34 35 37 37 37 38 40 37 33 32 27 24 21 18 16 13 10 7 5 7 10 13 16 18 20 22 23 24 28 32 37 42 45 45 47 49 52 56
12 15 16 17 20 22 23 22 24 23 24 23 22 20 18 15 13 11 8 5 4 5 7 9 9 10 12 13 14 16 19 24 27 32 36 39 41 43 45 47 49 51 51
16 15 15 15 16 16 16 17 17 16 16 17 16 15 12 9 8 8 7 6 4 2 2 5 6 7 9 11 15 20 24 27 31 33 35 37 38 39 41 43 45 45 47
19 18 17 15 14 13 13 13 13 13 13 12 12 14 13 11 9 8 6 5 3 2 1 2 4 8 13 17 20 23 26 29 31 32 33 36 37 39 39 39 40 41 42
23 20 18 17 16 15 15 14 13 13 13 14 13 11 12 10 9 9 8 6 5 5 4 7 11 14 16 19 23 26 28 30 31 33 34 33 33 34 35 36 37 37 38
24 22 20 19 17 16 15 14 15 14 13 12 11 12 13 12 11 10 10 8 7 10 12 15 19 22 24 26 28 30 30 30 29 30 30 31 31 32 32 34 36 41 44
24 22 20 18 17 17 17 17 17 17 16 17 17 16 15 14 13 10 9 9 11 14 16 17 19 22 24 25 25 26 27 29 29 27 28 31 33 35 39 43 44 44 47
28 26 23 22 22 21 20 20 20 20 19 19 18 17 14 11 10 9 10 10 10 11 14 18 19 20 22 23 25 26 29 29 28 24 31 31 34 41 48 49 47 48 49
Wind_Direction_850mb
292 290 283 278 273 269 262 257 254 255 249 247 242 230 231 227 223 224 228 225 216 217 215 225 224 219 214 215 220 220 211 221 223 217 215 207 207 219 224 228 229 233 244
301 291 281 277 272 267 262 259 253 247 243 239 237 223 224 223 217 221 223 219 221 217 225 214 216 221 217 217 216 217 221 229 213 204 207 212 214 212 235 234 228 235 245
303 299 292 286 279 272 265 256 249 244 238 235 230 220 216 219 216 218 226 221 215 233 226 216 211 214 217 210 217 224 217 228 217 214 203 206 214 228 225 221 227 236 246
314 307 301 292 287 281 270 258 248 236 232 233 230 220 217 215 214 212 221 227 225 223 234 222 214 214 219 213 219 216 213 206 205 195 207 229 226 217 217 224 231 241 252
322 316 310 302 298 294 280 258 242 234 225 228 226 212 213 215 215 214 222 227 223 225 224 225 211 212 215 214 216 207 201 202 198 208 233 224 208 217 222 228 237 244 254
327 324 320 318 307 295 267 249 233 225 217 217 214 218 204 205 213 214 218 218 216 216 226 218 212 214 207 210 207 205 207 198 213 223 216 196 209 221 227 234 240 244 255
336 333 331 325 318 322 227 227 210 203 206 203 207 198 201 199 205 209 209 213 221 223 222 216 212 200 194 186 182 186 197 215 220 215 188 209 221 230 235 237 245 251 259
349 347 347 339 330 326 170 175 182 183 190 187 199 195 195 196 202 201 208 216 213 213 225 223 198 183 182 181 186 191 198 186 168 195 210 221 227 231 237 242 245 253 263
359 360 0 356 26 125 150 163 177 177 184 186 193 198 199 193 198 201 213 211 199 205 200 189 182 178 177 182 191 188 183 174 188 202 212 222 232 238 243 248 254 261 266
5 7 10 8 32 119 149 151 159 176 176 180 181 186 186 185 191 205 200 188 193 182 174 173 175 170 173 181 183 175 175 188 198 209 221 233 243 248 252 256 259 265 273
19 26 40 48 72 124 132 137 152 164 163 157 156 159 167 174 173 187 181 176 178 162 160 160 164 170 169 171 171 176 182 194 206 219 231 241 248 253 260 266 272 276 277
40 57 70 85 101 120 142 133 136 145 140 136 135 133 137 141 161 171 152 157 158 155 158 157 157 161 162 168 174 181 193 205 218 231 242 251 258 262 267 269 275 279 280
57 66 76 89 103 116 121 124 130 133 131 133 132 131 138 147 136 128 133 143 146 149 150 150 149 155 165 172 178 192 211 222 232 243 252 256 259 264 270 274 278 280 279
67 74 82 92 100 107 114 120 124 127 127 127 128 132 132 127 123 126 128 130 133 134 137 147 155 161 168 181 194 210 225 239 250 256 260 266 273 279 281 283 284 286 287
64 72 79 89 99 106 108 109 112 118 125 129 127 123 120 116 117 122 126 133 136 142 150 151 157 166 178 193 211 231 245 254 262 270 276 281 284 283 283 288 295 301 299
75 77 81 84 90 97 102 106 105 106 105 103 106 112 117 116 120 126 130 131 134 138 146 148 156 165 187 210 228 243 254 264 273 278 278 278 280 290 298 299 299 300 301
84 86 92 97 101 106 111 113 116 116 114 112 113 115 117 120 123 122 125 130 132 137 146 159 173 187 206 225 242 253 257 260 265 270 282 291 295 296 295 297 298 300 302
90 94 97 98 100 104 107 107 109 112 113 112 114 115 115 117 119 122 126 132 141 153 168 178 191 209 227 241 254 264 276 287 294 295 296 296 295 299 303 303 302 302 303
110 110 109 109 109 109 110 112 113 115 116 117 120 125 127 129 133 140 150 161 170 178 201 228 254 260 265 276 292 302 308 310 308 306 307 308 308 306 305 305 305 304 303
145 139 130 124 121 121 120 121 123 125 126 129 132 136 144 152 159 168 181 200 215 224 239 251 267 288 306 313 317 316 314 315 316 314 311 310 311 311 311 310 309 310 312
192 184 172 167 161 154 151 150 149 153 157 155 154 154 156 159 167 167 167 175 179 201 308 326 333 333 329 326 327 328 326 322 318 317 316 317 316 315 316 316 316 314 314
209 203 201 198 195 190 182 179 177 176 168 161 159 163 159 162 163 152 135 116 92 72 22 357 353 350 346 342 334 327 325 325 326 325 325 324 322 319 319 321 323 325 325
211 214 211 205 200 197 194 185 178 170 166 157 146 140 133 138 129 122 121 127 131 116 65 25 9 358 349 342 338 335 334 331 327 324 321 319 324 329 332 336 337 338 338
208 209 208 207 202 194 187 180 170 160 155 145 139 137 134 136 134 135 127 109 69 39 24 13 3 354 346 342 337 332 328 325 322 323 326 331 336 338 337 334 331 328 324
206 206 203 202 198 192 185 180 173 163 156 148 145 145 144 136 125 107 83 61 40 26 13 358 345 338 333 328 325 325 327 328 328 330 328 331 331 328 327 329 331 327 326
203 198 194 194 190 183 175 171 162 157 155 155 152 145 137 126 106 80 58 41 23 357 341 332 328 326 327 329 331 331 333 333 332 324 331 324 323 329 327 322 323 323 323